owner,sensor,date,latitude,longitude,vertical_datum,sea_water_temperature,qcFlag 
TABS,ioos:station:TABS:X:1,2015-07-10T12:00:00Z,27.0660,-96.3383,-2.0,0.0,11133222 
TABS,ioos:station:TABS:X:1,2015-07-10T21:30:00Z,27.0660,-96.3383,-2.0,0.0,11133222 
TABS,ioos:station:TABS:X:1,2015-07-10T22:00:00Z,27.0660,-96.3383,-2.0,0.0,11133222 
TABS,ioos:station:TABS:X:1,2015-07-10T22:30:00Z,27.0660,-96.3383,-2.0,0.0,11133222 
TABS,ioos:station:TABS:X:1,2015-07-10T23:00:00Z,27.0660,-96.3383,-2.0,0.0,11133222 
TABS,ioos:station:TABS:X:1,2015-07-11T00:30:00Z,27.0660,-96.3383,-2.0,0.0,11133222 
TABS,ioos:station:TABS:X:1,2015-07-11T01:00:00Z,27.0660,-96.3383,-2.0,0.0,11133222 
TABS,ioos:station:TABS:X:1,2015-07-11T01:30:00Z,27.0660,-96.3383,-2.0,0.0,11133222 
TABS,ioos:station:TABS:X:1,2015-07-11T02:00:00Z,27.0660,-96.3383,-2.0,0.0,11133222 
TABS,ioos:station:TABS:X:1,2015-07-11T02:30:00Z,27.0660,-96.3383,-2.0,0.0,11133222 
TABS,ioos:station:TABS:X:1,2015-07-11T03:00:00Z,27.0660,-96.3383,-2.0,0.0,11133222 
TABS,ioos:station:TABS:X:1,2015-07-11T03:30:00Z,27.0660,-96.3383,-2.0,0.0,11133222 
TABS,ioos:station:TABS:X:1,2015-07-11T04:00:00Z,27.0660,-96.3383,-2.0,0.0,11133222 
TABS,ioos:station:TABS:X:1,2015-07-11T04:30:00Z,27.0660,-96.3383,-2.0,0.0,11133222 
TABS,ioos:station:TABS:X:1,2015-07-11T05:00:00Z,27.0660,-96.3383,-2.0,0.0,11133222 
TABS,ioos:station:TABS:X:1,2015-07-11T05:30:00Z,27.0660,-96.3383,-2.0,0.0,11133222 
TABS,ioos:station:TABS:X:1,2015-07-11T06:00:00Z,27.0660,-96.3383,-2.0,0.0,11133222 
TABS,ioos:station:TABS:X:1,2015-07-11T06:30:00Z,27.0660,-96.3383,-2.0,0.0,11133222 
TABS,ioos:station:TABS:X:1,2015-07-11T07:00:00Z,27.0660,-96.3383,-2.0,0.0,11133222 
TABS,ioos:station:TABS:X:1,2015-07-11T07:30:00Z,27.0660,-96.3383,-2.0,0.0,11133222 
TABS,ioos:station:TABS:X:1,2015-07-11T08:00:00Z,27.0660,-96.3383,-2.0,0.0,11133222 
TABS,ioos:station:TABS:X:1,2015-07-11T08:30:00Z,27.0660,-96.3383,-2.0,0.0,11133222 
TABS,ioos:station:TABS:X:1,2015-07-11T09:00:00Z,27.0660,-96.3383,-2.0,0.0,11133222 
TABS,ioos:station:TABS:X:1,2015-07-11T09:30:00Z,27.0660,-96.3383,-2.0,0.0,11133222 
TABS,ioos:station:TABS:X:1,2015-07-11T10:00:00Z,27.0660,-96.3383,-2.0,0.0,11133222 
TABS,ioos:station:TABS:X:1,2015-07-11T10:30:00Z,27.0660,-96.3383,-2.0,0.0,11133222 
TABS,ioos:station:TABS:X:1,2015-07-11T11:00:00Z,27.0660,-96.3383,-2.0,0.0,11133222 
TABS,ioos:station:TABS:X:1,2015-07-11T11:30:00Z,27.0660,-96.3383,-2.0,0.0,11133222 
TABS,ioos:station:TABS:X:1,2015-07-11T12:00:00Z,27.0660,-96.3383,-2.0,0.0,11133222 
TABS,ioos:station:TABS:X:1,2015-07-11T12:30:00Z,27.0660,-96.3383,-2.0,0.0,11133222 
TABS,ioos:station:TABS:X:1,2015-07-11T13:00:00Z,27.0660,-96.3383,-2.0,0.0,11133222 
TABS,ioos:station:TABS:X:1,2015-07-11T13:30:00Z,27.0660,-96.3383,-2.0,0.0,11133222 
TABS,ioos:station:TABS:X:1,2015-07-11T14:00:00Z,27.0660,-96.3383,-2.0,0.0,11133222 
TABS,ioos:station:TABS:X:1,2015-07-11T14:30:00Z,27.0660,-96.3383,-2.0,0.0,11133222 
TABS,ioos:station:TABS:X:1,2015-07-11T15:00:00Z,27.0660,-96.3383,-2.0,0.0,11133222 
TABS,ioos:station:TABS:X:1,2015-07-11T15:30:00Z,27.0660,-96.3383,-2.0,0.0,11133222 
TABS,ioos:station:TABS:X:1,2015-07-11T16:00:00Z,27.0660,-96.3383,-2.0,0.0,11133222 
TABS,ioos:station:TABS:X:1,2015-07-11T16:30:00Z,27.0660,-96.3383,-2.0,0.0,11133222 
TABS,ioos:station:TABS:X:1,2015-07-11T17:00:00Z,27.0660,-96.3383,-2.0,0.0,11133222 
TABS,ioos:station:TABS:X:1,2015-07-11T17:30:00Z,27.0660,-96.3383,-2.0,0.0,11133222 
TABS,ioos:station:TABS:X:1,2015-07-11T18:00:00Z,27.0660,-96.3383,-2.0,0.0,11133222 
TABS,ioos:station:TABS:X:1,2015-07-11T18:30:00Z,27.0660,-96.3383,-2.0,0.0,11133222 
TABS,ioos:station:TABS:X:1,2015-07-11T19:00:00Z,27.0660,-96.3383,-2.0,0.0,11133222 
TABS,ioos:station:TABS:X:1,2015-07-11T19:30:00Z,27.0660,-96.3383,-2.0,0.0,11133222 
TABS,ioos:station:TABS:X:1,2015-07-11T20:00:00Z,27.0660,-96.3383,-2.0,0.0,11133222 
TABS,ioos:station:TABS:X:1,2015-07-11T20:30:00Z,27.0660,-96.3383,-2.0,0.0,11133222 
TABS,ioos:station:TABS:X:1,2015-07-11T22:00:00Z,27.0660,-96.3383,-2.0,0.0,11133222 
TABS,ioos:station:TABS:X:1,2015-07-11T22:30:00Z,27.0660,-96.3383,-2.0,0.0,11133222 
TABS,ioos:station:TABS:X:1,2015-07-11T23:00:00Z,27.0660,-96.3383,-2.0,0.0,11133222 
TABS,ioos:station:TABS:X:1,2015-07-11T23:30:00Z,27.0660,-96.3383,-2.0,0.0,11133222 
TABS,ioos:station:TABS:X:1,2015-07-12T00:00:00Z,27.0660,-96.3383,-2.0,0.0,11133222 
TABS,ioos:station:TABS:X:1,2015-07-12T00:30:00Z,27.0660,-96.3383,-2.0,0.0,11133222 
TABS,ioos:station:TABS:X:1,2015-07-12T01:00:00Z,27.0660,-96.3383,-2.0,0.0,11133222 
TABS,ioos:station:TABS:X:1,2015-07-12T01:30:00Z,27.0660,-96.3383,-2.0,0.0,11133222 
TABS,ioos:station:TABS:X:1,2015-07-12T02:00:00Z,27.0660,-96.3383,-2.0,0.0,11133222 
TABS,ioos:station:TABS:X:1,2015-07-12T02:30:00Z,27.0660,-96.3383,-2.0,0.0,11133222 
TABS,ioos:station:TABS:X:1,2015-07-12T03:00:00Z,27.0660,-96.3383,-2.0,0.0,11133222 
TABS,ioos:station:TABS:X:1,2015-07-12T03:30:00Z,27.0660,-96.3383,-2.0,0.0,11133222 
TABS,ioos:station:TABS:X:1,2015-07-12T04:00:00Z,27.0660,-96.3383,-2.0,0.0,11133222 
TABS,ioos:station:TABS:X:1,2015-07-12T04:30:00Z,27.0660,-96.3383,-2.0,0.0,11133222 
TABS,ioos:station:TABS:X:1,2015-07-12T05:00:00Z,27.0660,-96.3383,-2.0,0.0,11133222 
TABS,ioos:station:TABS:X:1,2015-07-12T05:30:00Z,27.0660,-96.3383,-2.0,0.0,11133222 
TABS,ioos:station:TABS:X:1,2015-07-12T06:00:00Z,27.0660,-96.3383,-2.0,0.0,11133222 
TABS,ioos:station:TABS:X:1,2015-07-12T06:30:00Z,27.0660,-96.3383,-2.0,0.0,11133222 
TABS,ioos:station:TABS:X:1,2015-07-12T07:00:00Z,27.0660,-96.3383,-2.0,0.0,11133222 
TABS,ioos:station:TABS:X:1,2015-07-12T07:30:00Z,27.0660,-96.3383,-2.0,0.0,11133222 
TABS,ioos:station:TABS:X:1,2015-07-12T08:00:00Z,27.0660,-96.3383,-2.0,0.0,11133222 
TABS,ioos:station:TABS:X:1,2015-07-12T08:30:00Z,27.0660,-96.3383,-2.0,0.0,11133222 
TABS,ioos:station:TABS:X:1,2015-07-12T09:00:00Z,27.0660,-96.3383,-2.0,0.0,11133222 
TABS,ioos:station:TABS:X:1,2015-07-12T09:30:00Z,27.0660,-96.3383,-2.0,0.0,11133222 
TABS,ioos:station:TABS:X:1,2015-07-12T10:00:00Z,27.0660,-96.3383,-2.0,0.0,11133222 
TABS,ioos:station:TABS:X:1,2015-07-12T10:30:00Z,27.0660,-96.3383,-2.0,0.0,11133222 
TABS,ioos:station:TABS:X:1,2015-07-12T11:00:00Z,27.0660,-96.3383,-2.0,0.0,11133222 
TABS,ioos:station:TABS:X:1,2015-07-12T11:30:00Z,27.0660,-96.3383,-2.0,0.0,11133222 
TABS,ioos:station:TABS:X:1,2015-07-12T12:00:00Z,27.0660,-96.3383,-2.0,0.0,11133222 
TABS,ioos:station:TABS:X:1,2015-07-12T12:30:00Z,27.0660,-96.3383,-2.0,0.0,11133222 
TABS,ioos:station:TABS:X:1,2015-07-12T13:00:00Z,27.0660,-96.3383,-2.0,0.0,11133222 
TABS,ioos:station:TABS:X:1,2015-07-12T13:30:00Z,27.0660,-96.3383,-2.0,0.0,11133222 
TABS,ioos:station:TABS:X:1,2015-07-12T14:00:00Z,27.0660,-96.3383,-2.0,0.0,11133222 
TABS,ioos:station:TABS:X:1,2015-07-12T14:30:00Z,27.0660,-96.3383,-2.0,0.0,11133222 
TABS,ioos:station:TABS:X:1,2015-07-12T15:00:00Z,27.0660,-96.3383,-2.0,0.0,11133222 
TABS,ioos:station:TABS:X:1,2015-07-12T15:30:00Z,27.0660,-96.3383,-2.0,0.0,11133222 
TABS,ioos:station:TABS:X:1,2015-07-12T16:00:00Z,27.0660,-96.3383,-2.0,0.0,11133222 
TABS,ioos:station:TABS:X:1,2015-07-12T16:30:00Z,27.0660,-96.3383,-2.0,0.0,11133222 
TABS,ioos:station:TABS:X:1,2015-07-12T17:00:00Z,27.0660,-96.3383,-2.0,0.0,11133222 
TABS,ioos:station:TABS:X:1,2015-07-12T17:30:00Z,27.0660,-96.3383,-2.0,0.0,11133222 
TABS,ioos:station:TABS:X:1,2015-07-12T18:00:00Z,27.0660,-96.3383,-2.0,0.0,11133222 
TABS,ioos:station:TABS:X:1,2015-07-12T18:30:00Z,27.0660,-96.3383,-2.0,0.0,11133222 
TABS,ioos:station:TABS:X:1,2015-07-12T19:00:00Z,27.0660,-96.3383,-2.0,0.0,11133222 
TABS,ioos:station:TABS:X:1,2015-07-12T19:30:00Z,27.0660,-96.3383,-2.0,0.0,11133222 
TABS,ioos:station:TABS:X:1,2015-07-12T20:00:00Z,27.0660,-96.3383,-2.0,0.0,11133222 
TABS,ioos:station:TABS:X:1,2015-07-12T20:30:00Z,27.0660,-96.3383,-2.0,0.0,11133222 
TABS,ioos:station:TABS:X:1,2015-07-12T21:00:00Z,27.0660,-96.3383,-2.0,0.0,11133222 
TABS,ioos:station:TABS:X:1,2015-07-12T21:30:00Z,27.0660,-96.3383,-2.0,0.0,11133222 
TABS,ioos:station:TABS:X:1,2015-07-12T22:00:00Z,27.0660,-96.3383,-2.0,0.0,11133222 
TABS,ioos:station:TABS:X:1,2015-07-12T22:30:00Z,27.0660,-96.3383,-2.0,0.0,11133222 
TABS,ioos:station:TABS:X:1,2015-07-12T23:00:00Z,27.0660,-96.3383,-2.0,0.0,11133222 
TABS,ioos:station:TABS:X:1,2015-07-12T23:30:00Z,27.0660,-96.3383,-2.0,0.0,11133222 
TABS,ioos:station:TABS:X:1,2015-07-13T00:00:00Z,27.0660,-96.3383,-2.0,0.0,11133222 
TABS,ioos:station:TABS:X:1,2015-07-13T00:30:00Z,27.0660,-96.3383,-2.0,0.0,11133222 
TABS,ioos:station:TABS:X:1,2015-07-13T01:00:00Z,27.0660,-96.3383,-2.0,0.0,11133222 
TABS,ioos:station:TABS:X:1,2015-07-13T01:30:00Z,27.0660,-96.3383,-2.0,0.0,11133222 
TABS,ioos:station:TABS:X:1,2015-07-13T02:00:00Z,27.0660,-96.3383,-2.0,0.0,11133222 
TABS,ioos:station:TABS:X:1,2015-07-13T02:30:00Z,27.0660,-96.3383,-2.0,0.0,11133222 
TABS,ioos:station:TABS:X:1,2015-07-13T03:00:00Z,27.0660,-96.3383,-2.0,0.0,11133222 
TABS,ioos:station:TABS:X:1,2015-07-13T03:30:00Z,27.0660,-96.3383,-2.0,0.0,11133222 
TABS,ioos:station:TABS:X:1,2015-07-13T04:00:00Z,27.0660,-96.3383,-2.0,0.0,11133222 
TABS,ioos:station:TABS:X:1,2015-07-13T04:30:00Z,27.0660,-96.3383,-2.0,0.0,11133222 
TABS,ioos:station:TABS:X:1,2015-07-13T05:00:00Z,27.0660,-96.3383,-2.0,0.0,11133222 
TABS,ioos:station:TABS:X:1,2015-07-13T05:30:00Z,27.0660,-96.3383,-2.0,0.0,11133222 
TABS,ioos:station:TABS:X:1,2015-07-13T06:00:00Z,27.0660,-96.3383,-2.0,0.0,11133222 
TABS,ioos:station:TABS:X:1,2015-07-13T06:30:00Z,27.0660,-96.3383,-2.0,0.0,11133222 
TABS,ioos:station:TABS:X:1,2015-07-13T07:00:00Z,27.0660,-96.3383,-2.0,0.0,11133222 
TABS,ioos:station:TABS:X:1,2015-07-13T07:30:00Z,27.0660,-96.3383,-2.0,0.0,11133222 
TABS,ioos:station:TABS:X:1,2015-07-13T08:00:00Z,27.0660,-96.3383,-2.0,0.0,11133222 
TABS,ioos:station:TABS:X:1,2015-07-13T08:30:00Z,27.0660,-96.3383,-2.0,0.0,11133222 
TABS,ioos:station:TABS:X:1,2015-07-13T09:00:00Z,27.0660,-96.3383,-2.0,0.0,11133222 
TABS,ioos:station:TABS:X:1,2015-07-13T09:30:00Z,27.0660,-96.3383,-2.0,0.0,11133222 
TABS,ioos:station:TABS:X:1,2015-07-13T10:00:00Z,27.0660,-96.3383,-2.0,0.0,11133222 
TABS,ioos:station:TABS:X:1,2015-07-13T10:30:00Z,27.0660,-96.3383,-2.0,0.0,11133222 
TABS,ioos:station:TABS:X:1,2015-07-13T11:00:00Z,27.0660,-96.3383,-2.0,0.0,11133222 
TABS,ioos:station:TABS:X:1,2015-07-13T11:30:00Z,27.0660,-96.3383,-2.0,0.0,11133222 
TABS,ioos:station:TABS:X:1,2015-07-13T13:00:00Z,27.0660,-96.3383,-2.0,0.0,11133222 
TABS,ioos:station:TABS:X:1,2015-07-13T13:30:00Z,27.0660,-96.3383,-2.0,0.0,11133222 
TABS,ioos:station:TABS:X:1,2015-07-13T14:00:00Z,27.0660,-96.3383,-2.0,0.0,11133222 
TABS,ioos:station:TABS:X:1,2015-07-14T00:00:00Z,27.0660,-96.3383,-2.0,37.82,11133222 
TABS,ioos:station:TABS:X:1,2015-07-14T00:30:00Z,27.0660,-96.3383,-2.0,36.93,11133222 
TABS,ioos:station:TABS:X:1,2015-07-14T01:00:00Z,27.0660,-96.3383,-2.0,35.74,11133222 
TABS,ioos:station:TABS:X:1,2015-07-14T01:30:00Z,27.0660,-96.3383,-2.0,34.49,11111222 
TABS,ioos:station:TABS:X:1,2015-07-14T02:00:00Z,27.0660,-96.3383,-2.0,33.38,11111222 
TABS,ioos:station:TABS:X:1,2015-07-14T02:30:00Z,27.0660,-96.3383,-2.0,32.55,11111222 
TABS,ioos:station:TABS:X:1,2015-07-14T03:00:00Z,27.0660,-96.3383,-2.0,31.94,11111222 
TABS,ioos:station:TABS:X:1,2015-07-14T03:30:00Z,27.0660,-96.3383,-2.0,31.26,11111222 
TABS,ioos:station:TABS:X:1,2015-07-14T04:00:00Z,27.0660,-96.3383,-2.0,30.41,11111222 
TABS,ioos:station:TABS:X:1,2015-07-14T04:30:00Z,27.0660,-96.3383,-2.0,29.67,11111222 
TABS,ioos:station:TABS:X:1,2015-07-14T05:00:00Z,27.0660,-96.3383,-2.0,29.08,11111222 
TABS,ioos:station:TABS:X:1,2015-07-14T05:30:00Z,27.0660,-96.3383,-2.0,28.54,11111222 
TABS,ioos:station:TABS:X:1,2015-07-14T06:00:00Z,27.0660,-96.3383,-2.0,28.03,11111222 
TABS,ioos:station:TABS:X:1,2015-07-14T06:30:00Z,27.0660,-96.3383,-2.0,0.0,11133222 
TABS,ioos:station:TABS:X:1,2015-07-14T07:00:00Z,27.0660,-96.3383,-2.0,27.05,11111222 
TABS,ioos:station:TABS:X:1,2015-07-14T07:30:00Z,27.0660,-96.3383,-2.0,26.63,11111222 
TABS,ioos:station:TABS:X:1,2015-07-14T08:00:00Z,27.0660,-96.3383,-2.0,26.22,11111222 
TABS,ioos:station:TABS:X:1,2015-07-14T08:30:00Z,27.0660,-96.3383,-2.0,25.9,11111222 
TABS,ioos:station:TABS:X:1,2015-07-14T09:00:00Z,27.0660,-96.3383,-2.0,25.49,11111222 
TABS,ioos:station:TABS:X:1,2015-07-14T09:30:00Z,27.0660,-96.3383,-2.0,25.28,11111222 
TABS,ioos:station:TABS:X:1,2015-07-14T10:00:00Z,27.0660,-96.3383,-2.0,25.32,11111222 
TABS,ioos:station:TABS:X:1,2015-07-14T15:30:00Z,27.0660,-96.3383,-2.0,37.64,11133222 
TABS,ioos:station:TABS:X:1,2015-07-14T16:00:00Z,27.0660,-96.3383,-2.0,38.68,11133222 
TABS,ioos:station:TABS:X:1,2015-07-14T16:30:00Z,27.0660,-96.3383,-2.0,37.71,11133222 
TABS,ioos:station:TABS:X:1,2015-07-14T17:00:00Z,27.0660,-96.3383,-2.0,38.4,11133222 
TABS,ioos:station:TABS:X:1,2015-07-14T17:30:00Z,27.0660,-96.3383,-2.0,40.15,11144222 
TABS,ioos:station:TABS:X:1,2015-07-14T18:00:00Z,27.0660,-96.3383,-2.0,40.81,11144222 
TABS,ioos:station:TABS:X:1,2015-07-14T18:30:00Z,27.0660,-96.3383,-2.0,40.95,11144222 
TABS,ioos:station:TABS:X:1,2015-07-14T19:00:00Z,27.0660,-96.3383,-2.0,41.03,11144222 
TABS,ioos:station:TABS:X:1,2015-07-14T19:30:00Z,27.0660,-96.3383,-2.0,41.39,11144222 
TABS,ioos:station:TABS:X:1,2015-07-14T20:00:00Z,27.0660,-96.3383,-2.0,40.45,11144222 
TABS,ioos:station:TABS:X:1,2015-07-14T20:30:00Z,27.0660,-96.3383,-2.0,39.92,11133222 
TABS,ioos:station:TABS:X:1,2015-07-14T21:00:00Z,27.0660,-96.3383,-2.0,39.69,11133222 
TABS,ioos:station:TABS:X:1,2015-07-14T21:30:00Z,27.0660,-96.3383,-2.0,39.38,11133222 
TABS,ioos:station:TABS:X:1,2015-07-14T22:00:00Z,27.0660,-96.3383,-2.0,39.08,11133222 
TABS,ioos:station:TABS:X:1,2015-07-14T22:30:00Z,27.0660,-96.3383,-2.0,38.58,11133222 
TABS,ioos:station:TABS:X:1,2015-07-14T23:00:00Z,27.0660,-96.3383,-2.0,38.05,11133222 
TABS,ioos:station:TABS:X:1,2015-07-14T23:30:00Z,27.0660,-96.3383,-2.0,37.56,11133222 
TABS,ioos:station:TABS:X:1,2015-07-15T00:00:00Z,27.0660,-96.3383,-2.0,37.07,11133222 
TABS,ioos:station:TABS:X:1,2015-07-15T00:30:00Z,27.0660,-96.3383,-2.0,36.37,11133222 
TABS,ioos:station:TABS:X:1,2015-07-15T01:00:00Z,27.0660,-96.3383,-2.0,35.48,11133222 
TABS,ioos:station:TABS:X:1,2015-07-15T01:30:00Z,27.0660,-96.3383,-2.0,34.56,11111222 
TABS,ioos:station:TABS:X:1,2015-07-15T02:00:00Z,27.0660,-96.3383,-2.0,33.61,11111222 
TABS,ioos:station:TABS:X:1,2015-07-15T02:30:00Z,27.0660,-96.3383,-2.0,32.67,11111222 
TABS,ioos:station:TABS:X:1,2015-07-15T03:00:00Z,27.0660,-96.3383,-2.0,31.79,11111222 
TABS,ioos:station:TABS:X:1,2015-07-15T03:30:00Z,27.0660,-96.3383,-2.0,31.08,11111222 
TABS,ioos:station:TABS:X:1,2015-07-15T04:00:00Z,27.0660,-96.3383,-2.0,30.36,11111222 
TABS,ioos:station:TABS:X:1,2015-07-15T04:30:00Z,27.0660,-96.3383,-2.0,29.74,11111222 
TABS,ioos:station:TABS:X:1,2015-07-15T05:00:00Z,27.0660,-96.3383,-2.0,29.11,11111222 
TABS,ioos:station:TABS:X:1,2015-07-15T05:30:00Z,27.0660,-96.3383,-2.0,28.54,11111222 
TABS,ioos:station:TABS:X:1,2015-07-15T06:00:00Z,27.0660,-96.3383,-2.0,28.09,11111222 
TABS,ioos:station:TABS:X:1,2015-07-15T06:30:00Z,27.0660,-96.3383,-2.0,27.56,11111222 
TABS,ioos:station:TABS:X:1,2015-07-15T07:00:00Z,27.0660,-96.3383,-2.0,27.09,11111222 
TABS,ioos:station:TABS:X:1,2015-07-15T07:30:00Z,27.0660,-96.3383,-2.0,26.68,11111222 
TABS,ioos:station:TABS:X:1,2015-07-15T08:00:00Z,27.0660,-96.3383,-2.0,26.31,11111222 
TABS,ioos:station:TABS:X:1,2015-07-15T08:30:00Z,27.0660,-96.3383,-2.0,26.0,11111222 
TABS,ioos:station:TABS:X:1,2015-07-15T09:00:00Z,27.0660,-96.3383,-2.0,25.74,11111222 
TABS,ioos:station:TABS:X:1,2015-07-15T09:30:00Z,27.0660,-96.3383,-2.0,25.51,11111222 
TABS,ioos:station:TABS:X:1,2015-07-15T10:00:00Z,27.0660,-96.3383,-2.0,25.26,11111222 
TABS,ioos:station:TABS:X:1,2015-07-15T10:30:00Z,27.0660,-96.3383,-2.0,25.01,11111222 
TABS,ioos:station:TABS:X:1,2015-07-15T11:00:00Z,27.0660,-96.3383,-2.0,24.84,11111222 
TABS,ioos:station:TABS:X:1,2015-07-15T11:30:00Z,27.0660,-96.3383,-2.0,24.71,11111222 
TABS,ioos:station:TABS:X:1,2015-07-15T12:00:00Z,27.0660,-96.3383,-2.0,24.77,11111222 
TABS,ioos:station:TABS:X:1,2015-07-15T12:30:00Z,27.0660,-96.3383,-2.0,26.58,11111222 
TABS,ioos:station:TABS:X:1,2015-07-15T13:00:00Z,27.0660,-96.3383,-2.0,29.75,11111222 
TABS,ioos:station:TABS:X:1,2015-07-15T13:30:00Z,27.0660,-96.3383,-2.0,30.51,11111222 
TABS,ioos:station:TABS:X:1,2015-07-15T14:00:00Z,27.0660,-96.3383,-2.0,31.22,11111222 
TABS,ioos:station:TABS:X:1,2015-07-15T14:30:00Z,27.0660,-96.3383,-2.0,31.0,11111222 
TABS,ioos:station:TABS:X:1,2015-07-15T15:00:00Z,27.0660,-96.3383,-2.0,32.71,11111222 
TABS,ioos:station:TABS:X:1,2015-07-15T15:30:00Z,27.0660,-96.3383,-2.0,33.73,11111222 
TABS,ioos:station:TABS:X:1,2015-07-15T16:00:00Z,27.0660,-96.3383,-2.0,34.7,11111222 
TABS,ioos:station:TABS:X:1,2015-07-15T16:30:00Z,27.0660,-96.3383,-2.0,36.0,11133222 
TABS,ioos:station:TABS:X:1,2015-07-15T17:00:00Z,27.0660,-96.3383,-2.0,36.07,11133222 
TABS,ioos:station:TABS:X:1,2015-07-15T17:30:00Z,27.0660,-96.3383,-2.0,37.86,11133222 
TABS,ioos:station:TABS:X:1,2015-07-15T18:00:00Z,27.0660,-96.3383,-2.0,38.6,11133222 
TABS,ioos:station:TABS:X:1,2015-07-15T18:30:00Z,27.0660,-96.3383,-2.0,39.43,11133222 
TABS,ioos:station:TABS:X:1,2015-07-15T19:00:00Z,27.0660,-96.3383,-2.0,40.15,11144222 
TABS,ioos:station:TABS:X:1,2015-07-15T19:30:00Z,27.0660,-96.3383,-2.0,40.15,11144222 
TABS,ioos:station:TABS:X:1,2015-07-15T20:00:00Z,27.0660,-96.3383,-2.0,40.06,11144222 
TABS,ioos:station:TABS:X:1,2015-07-15T20:30:00Z,27.0660,-96.3383,-2.0,40.13,11144222 
TABS,ioos:station:TABS:X:1,2015-07-15T21:00:00Z,27.0660,-96.3383,-2.0,39.6,11133222 
TABS,ioos:station:TABS:X:1,2015-07-15T21:30:00Z,27.0660,-96.3383,-2.0,39.34,11133222 
TABS,ioos:station:TABS:X:1,2015-07-15T22:00:00Z,27.0660,-96.3383,-2.0,39.12,11133222 
TABS,ioos:station:TABS:X:1,2015-07-15T22:30:00Z,27.0660,-96.3383,-2.0,38.62,11133222 
TABS,ioos:station:TABS:X:1,2015-07-15T23:00:00Z,27.0660,-96.3383,-2.0,38.38,11133222 
TABS,ioos:station:TABS:X:1,2015-07-15T23:30:00Z,27.0660,-96.3383,-2.0,37.77,11133222 
TABS,ioos:station:TABS:X:1,2015-07-16T00:00:00Z,27.0660,-96.3383,-2.0,37.4,11133222 
TABS,ioos:station:TABS:X:1,2015-07-16T00:30:00Z,27.0660,-96.3383,-2.0,36.16,11133222 
TABS,ioos:station:TABS:X:1,2015-07-16T01:00:00Z,27.0660,-96.3383,-2.0,35.23,11133222 
TABS,ioos:station:TABS:X:1,2015-07-16T01:30:00Z,27.0660,-96.3383,-2.0,34.12,11111222 
TABS,ioos:station:TABS:X:1,2015-07-16T02:00:00Z,27.0660,-96.3383,-2.0,33.28,11111222 
TABS,ioos:station:TABS:X:1,2015-07-16T02:30:00Z,27.0660,-96.3383,-2.0,32.56,11111222 
TABS,ioos:station:TABS:X:1,2015-07-16T03:00:00Z,27.0660,-96.3383,-2.0,31.78,11111222 
TABS,ioos:station:TABS:X:1,2015-07-16T03:30:00Z,27.0660,-96.3383,-2.0,31.08,11111222 
TABS,ioos:station:TABS:X:1,2015-07-16T04:00:00Z,27.0660,-96.3383,-2.0,30.43,11111222 
TABS,ioos:station:TABS:X:1,2015-07-16T04:30:00Z,27.0660,-96.3383,-2.0,29.85,11111222 
TABS,ioos:station:TABS:X:1,2015-07-16T05:00:00Z,27.0660,-96.3383,-2.0,29.35,11111222 
TABS,ioos:station:TABS:X:1,2015-07-16T05:30:00Z,27.0660,-96.3383,-2.0,28.87,11111222 
TABS,ioos:station:TABS:X:1,2015-07-16T06:00:00Z,27.0660,-96.3383,-2.0,28.43,11111222 
TABS,ioos:station:TABS:X:1,2015-07-16T06:30:00Z,27.0660,-96.3383,-2.0,28.01,11111222 
TABS,ioos:station:TABS:X:1,2015-07-16T07:00:00Z,27.0660,-96.3383,-2.0,0.0,11133222 
TABS,ioos:station:TABS:X:1,2015-07-16T07:30:00Z,27.0660,-96.3383,-2.0,27.25,11111222 
TABS,ioos:station:TABS:X:1,2015-07-16T08:00:00Z,27.0660,-96.3383,-2.0,26.92,11111222 
TABS,ioos:station:TABS:X:1,2015-07-16T08:30:00Z,27.0660,-96.3383,-2.0,26.68,11111222 
TABS,ioos:station:TABS:X:1,2015-07-16T09:00:00Z,27.0660,-96.3383,-2.0,26.46,11111222 
TABS,ioos:station:TABS:X:1,2015-07-16T09:30:00Z,27.0660,-96.3383,-2.0,26.25,11111222 
TABS,ioos:station:TABS:X:1,2015-07-16T10:00:00Z,27.0660,-96.3383,-2.0,26.04,11111222 
TABS,ioos:station:TABS:X:1,2015-07-16T10:30:00Z,27.0660,-96.3383,-2.0,25.89,11111222 
TABS,ioos:station:TABS:X:1,2015-07-16T11:00:00Z,27.0660,-96.3383,-2.0,25.76,11111222 
TABS,ioos:station:TABS:X:1,2015-07-16T11:30:00Z,27.0660,-96.3383,-2.0,25.6,11111222 
TABS,ioos:station:TABS:X:1,2015-07-16T12:00:00Z,27.0660,-96.3383,-2.0,25.77,11111222 
TABS,ioos:station:TABS:X:1,2015-07-16T12:30:00Z,27.0660,-96.3383,-2.0,27.29,11111222 
TABS,ioos:station:TABS:X:1,2015-07-16T13:00:00Z,27.0660,-96.3383,-2.0,30.29,11111222 
TABS,ioos:station:TABS:X:1,2015-07-16T13:30:00Z,27.0660,-96.3383,-2.0,31.13,11111222 
TABS,ioos:station:TABS:X:1,2015-07-16T14:00:00Z,27.0660,-96.3383,-2.0,0.0,11133222 
TABS,ioos:station:TABS:X:1,2015-07-16T14:30:00Z,27.0660,-96.3383,-2.0,31.09,11111222 
TABS,ioos:station:TABS:X:1,2015-07-16T15:00:00Z,27.0660,-96.3383,-2.0,33.64,11111222 
TABS,ioos:station:TABS:X:1,2015-07-16T15:30:00Z,27.0660,-96.3383,-2.0,35.21,11133222 
TABS,ioos:station:TABS:X:1,2015-07-16T16:00:00Z,27.0660,-96.3383,-2.0,36.35,11133222 
TABS,ioos:station:TABS:X:1,2015-07-16T16:30:00Z,27.0660,-96.3383,-2.0,35.64,11133222 
TABS,ioos:station:TABS:X:1,2015-07-16T17:00:00Z,27.0660,-96.3383,-2.0,36.13,11133222 
TABS,ioos:station:TABS:X:1,2015-07-16T17:30:00Z,27.0660,-96.3383,-2.0,37.31,11133222 
TABS,ioos:station:TABS:X:1,2015-07-16T18:00:00Z,27.0660,-96.3383,-2.0,37.78,11133222 
TABS,ioos:station:TABS:X:1,2015-07-16T18:30:00Z,27.0660,-96.3383,-2.0,38.6,11133222 
TABS,ioos:station:TABS:X:1,2015-07-16T19:00:00Z,27.0660,-96.3383,-2.0,39.33,11133222 
TABS,ioos:station:TABS:X:1,2015-07-16T19:30:00Z,27.0660,-96.3383,-2.0,39.64,11133222 
TABS,ioos:station:TABS:X:1,2015-07-16T20:00:00Z,27.0660,-96.3383,-2.0,39.6,11133222 
TABS,ioos:station:TABS:X:1,2015-07-16T20:30:00Z,27.0660,-96.3383,-2.0,39.54,11133222 
TABS,ioos:station:TABS:X:1,2015-07-16T21:00:00Z,27.0660,-96.3383,-2.0,0.0,11133222 
TABS,ioos:station:TABS:X:1,2015-07-16T21:30:00Z,27.0660,-96.3383,-2.0,39.29,11133222 
TABS,ioos:station:TABS:X:1,2015-07-16T22:00:00Z,27.0660,-96.3383,-2.0,38.96,11133222 
TABS,ioos:station:TABS:X:1,2015-07-16T22:30:00Z,27.0660,-96.3383,-2.0,38.57,11133222 
TABS,ioos:station:TABS:X:1,2015-07-16T23:00:00Z,27.0660,-96.3383,-2.0,38.38,11133222 
TABS,ioos:station:TABS:X:1,2015-07-16T23:30:00Z,27.0660,-96.3383,-2.0,37.67,11133222 
TABS,ioos:station:TABS:X:1,2015-07-17T00:00:00Z,27.0660,-96.3383,-2.0,0.0,11133222 
TABS,ioos:station:TABS:X:1,2015-07-17T00:30:00Z,27.0660,-96.3383,-2.0,36.63,11133222 
TABS,ioos:station:TABS:X:1,2015-07-17T01:00:00Z,27.0660,-96.3383,-2.0,35.72,11133222 
TABS,ioos:station:TABS:X:1,2015-07-17T01:30:00Z,27.0660,-96.3383,-2.0,34.77,11111222 
TABS,ioos:station:TABS:X:1,2015-07-17T02:00:00Z,27.0660,-96.3383,-2.0,33.87,11111222 
TABS,ioos:station:TABS:X:1,2015-07-17T02:30:00Z,27.0660,-96.3383,-2.0,33.04,11111222 
TABS,ioos:station:TABS:X:1,2015-07-17T03:00:00Z,27.0660,-96.3383,-2.0,32.25,11111222 
TABS,ioos:station:TABS:X:1,2015-07-17T03:30:00Z,27.0660,-96.3383,-2.0,31.51,11111222 
TABS,ioos:station:TABS:X:1,2015-07-17T04:00:00Z,27.0660,-96.3383,-2.0,30.83,11111222 
TABS,ioos:station:TABS:X:1,2015-07-17T04:30:00Z,27.0660,-96.3383,-2.0,30.24,11111222 
TABS,ioos:station:TABS:X:1,2015-07-17T05:00:00Z,27.0660,-96.3383,-2.0,29.67,11111222 
TABS,ioos:station:TABS:X:1,2015-07-17T05:30:00Z,27.0660,-96.3383,-2.0,29.21,11111222 
TABS,ioos:station:TABS:X:1,2015-07-17T06:00:00Z,27.0660,-96.3383,-2.0,28.76,11111222 
TABS,ioos:station:TABS:X:1,2015-07-17T06:30:00Z,27.0660,-96.3383,-2.0,28.4,11111222 
TABS,ioos:station:TABS:X:1,2015-07-17T07:00:00Z,27.0660,-96.3383,-2.0,28.02,11111222 
TABS,ioos:station:TABS:X:1,2015-07-17T07:30:00Z,27.0660,-96.3383,-2.0,27.58,11111222 
TABS,ioos:station:TABS:X:1,2015-07-17T08:00:00Z,27.0660,-96.3383,-2.0,27.24,11111222 
TABS,ioos:station:TABS:X:1,2015-07-17T08:30:00Z,27.0660,-96.3383,-2.0,26.97,11111222 
TABS,ioos:station:TABS:X:1,2015-07-17T09:00:00Z,27.0660,-96.3383,-2.0,26.69,11111222 
TABS,ioos:station:TABS:X:1,2015-07-17T09:30:00Z,27.0660,-96.3383,-2.0,26.45,11111222 
TABS,ioos:station:TABS:X:1,2015-07-17T10:00:00Z,27.0660,-96.3383,-2.0,26.23,11111222 
TABS,ioos:station:TABS:X:1,2015-07-17T10:30:00Z,27.0660,-96.3383,-2.0,26.01,11111222 